| time (UTC) | temp F | wind direction | speed MPH | gust MPH | rain 1hr in | rain 24hr in | rain mn in | humidity % | barometer mb |
| 20260507212026 | 61 | 137 | 4.0 | 8.0 | 0.00 | 0.00 | 0.00 | 81 | 1013.7 |
| 20260507211542 | 61 | 126 | 4.0 | 8.0 | 0.00 | 0.00 | 0.00 | 81 | 1013.7 |
| 20260507211026 | 61 | 138 | 4.0 | 7.0 | 0.00 | 0.00 | 0.00 | 81 | 1013.9 |
| 20260507210526 | 61 | 132 | 3.0 | 7.0 | 0.00 | 0.00 | 0.00 | 81 | 1013.8 |
| 20260507210050 | 61 | 127 | 3.0 | 5.0 | 0.00 | 0.00 | 0.00 | 82 | 1013.7 |
| 20260507205526 | 61 | 127 | 3.0 | 5.0 | 0.00 | 0.00 | 0.00 | 82 | 1013.7 |
| 20260507205029 | 61 | 127 | 2.0 | 4.0 | 0.00 | 0.00 | 0.00 | 82 | 1013.8 |
| 20260507204541 | 61 | 126 | 2.0 | 3.0 | 0.00 | 0.00 | 0.00 | 81 | 1013.8 |
| 20260507204025 | 62 | 126 | 1.0 | 3.0 | 0.00 | 0.00 | 0.00 | 81 | 1013.7 |
| 20260507203526 | 62 | 126 | 2.0 | 3.0 | 0.00 | 0.00 | 0.00 | 81 | 1013.8 |
| 20260507203101 | 62 | 126 | 2.0 | 7.0 | 0.00 | 0.00 | 0.00 | 80 | 1013.8 |
| 20260507202525 | 62 | 126 | 3.0 | 8.0 | 0.00 | 0.00 | 0.00 | 81 | 1013.7 |
| 20260507202025 | 62 | 126 | 3.0 | 8.0 | 0.00 | 0.00 | 0.00 | 81 | 1013.7 |
| 20260507201554 | 62 | 115 | 4.0 | 8.0 | 0.00 | 0.00 | 0.00 | 81 | 1013.7 |
| 20260507201026 | 62 | 103 | 3.0 | 7.0 | 0.00 | 0.00 | 0.00 | 80 | 1013.7 |
| 20260507200527 | 62 | 93 | 3.0 | 6.0 | 0.00 | 0.00 | 0.00 | 80 | 1013.6 |
| 20260507200104 | 63 | 111 | 1.0 | 8.0 | 0.00 | 0.00 | 0.00 | 80 | 1013.6 |
| 20260507195526 | 63 | 111 | 3.0 | 8.0 | 0.00 | 0.00 | 0.00 | 80 | 1013.6 |
| 20260507195027 | 63 | 111 | 4.0 | 8.0 | 0.00 | 0.00 | 0.00 | 80 | 1013.6 |
| 20260507194543 | 63 | 121 | 4.0 | 8.0 | 0.00 | 0.00 | 0.00 | 80 | 1013.7 |
| 20260507194026 | 63 | 142 | 2.0 | 8.0 | 0.00 | 0.00 | 0.00 | 81 | 1013.6 |
| 20260507193527 | 63 | 159 | 1.0 | 8.0 | 0.00 | 0.00 | 0.00 | 80 | 1013.5 |
| 20260507193046 | 63 | 116 | 2.0 | 4.0 | 0.00 | 0.00 | 0.00 | 80 | 1013.5 |
| 20260507192528 | 63 | 114 | 2.0 | 4.0 | 0.00 | 0.00 | 0.00 | 80 | 1013.5 |
| 20260507192029 | 63 | 113 | 1.0 | 3.0 | 0.00 | 0.00 | 0.00 | 80 | 1013.4 |
| 20260507191540 | 63 | 113 | 1.0 | 4.0 | 0.00 | 0.00 | 0.00 | 79 | 1013.4 |
| 20260507191027 | 63 | 113 | 1.0 | 4.0 | 0.00 | 0.00 | 0.00 | 79 | 1013.3 |
| 20260507190529 | 63 | 113 | 2.0 | 7.0 | 0.00 | 0.00 | 0.00 | 79 | 1013.3 |
| 20260507190042 | 63 | 112 | 2.0 | 8.0 | 0.00 | 0.00 | 0.00 | 79 | 1013.2 |
| 20260507185529 | 63 | 151 | 3.0 | 8.0 | 0.00 | 0.00 | 0.00 | 79 | 1013.1 |
| 20260507185026 | 63 | 130 | 3.0 | 7.0 | 0.00 | 0.00 | 0.00 | 79 | 1013.3 |
| 20260507184543 | 63 | 114 | 3.0 | 7.0 | 0.00 | 0.00 | 0.00 | 79 | 1013.2 |
| 20260507184027 | 63 | 128 | 4.0 | 7.0 | 0.00 | 0.00 | 0.00 | 80 | 1013.2 |
| 20260507183527 | 64 | 111 | 1.0 | 9.0 | 0.00 | 0.00 | 0.00 | 80 | 1013.1 |
| 20260507183049 | 64 | 114 | 3.0 | 9.0 | 0.00 | 0.00 | 0.00 | 80 | 1013.1 |
| 20260507182526 | 64 | 123 | 5.0 | 9.0 | 0.00 | 0.00 | 0.00 | 80 | 1013.1 |
| 20260507182026 | 64 | 109 | 5.0 | 9.0 | 0.00 | 0.00 | 0.00 | 80 | 1013.1 |
| 20260507181543 | 64 | 109 | 5.0 | 9.0 | 0.00 | 0.00 | 0.00 | 80 | 1013.1 |
| 20260507181027 | 64 | 126 | 4.0 | 12.0 | 0.00 | 0.00 | 0.00 | 80 | 1013.1 |
| 20260507180530 | 64 | 102 | 5.0 | 12.0 | 0.00 | 0.00 | 0.00 | 81 | 1013.1 |
| 20260507180046 | 64 | 131 | 6.0 | 11.0 | 0.00 | 0.00 | 0.00 | 81 | 1013.0 |
| 20260507175527 | 65 | 98 | 5.0 | 12.0 | 0.00 | 0.00 | 0.00 | 80 | 1012.9 |
| 20260507175026 | 65 | 94 | 5.0 | 12.0 | 0.00 | 0.00 | 0.00 | 81 | 1012.9 |
| 20260507174541 | 65 | 142 | 3.0 | 11.0 | 0.00 | 0.00 | 0.00 | 81 | 1012.8 |
| 20260507174025 | 65 | 119 | 5.0 | 11.0 | 0.00 | 0.00 | 0.00 | 81 | 1012.7 |
| 20260507173529 | 65 | 91 | 6.0 | 13.0 | 0.00 | 0.00 | 0.00 | 81 | 1012.6 |
| 20260507173039 | 65 | 92 | 8.0 | 13.0 | 0.00 | 0.00 | 0.00 | 81 | 1012.6 |
| 20260507172526 | 65 | 113 | 7.0 | 13.0 | 0.00 | 0.00 | 0.00 | 81 | 1012.7 |
| 20260507172025 | 65 | 69 | 6.0 | 12.0 | 0.00 | 0.00 | 0.00 | 80 | 1012.7 |
| 20260507171541 | 66 | 80 | 7.0 | 12.0 | 0.00 | 0.00 | 0.00 | 79 | 1012.8 |
| 20260507171026 | 66 | 113 | 7.0 | 12.0 | 0.00 | 0.00 | 0.00 | 79 | 1012.7 |
| 20260507170526 | 66 | 89 | 6.0 | 12.0 | 0.00 | 0.00 | 0.00 | 78 | 1012.6 |
| 20260507170051 | 66 | 111 | 7.0 | 12.0 | 0.00 | 0.00 | 0.00 | 77 | 1012.5 |
| 20260507165527 | 66 | 89 | 7.0 | 11.0 | 0.00 | 0.00 | 0.00 | 76 | 1012.5 |
| 20260507165027 | 66 | 110 | 6.0 | 13.0 | 0.00 | 0.00 | 0.00 | 77 | 1012.7 |
| 20260507164556 | 66 | 83 | 6.0 | 13.0 | 0.00 | 0.00 | 0.00 | 76 | 1012.6 |
| 20260507164026 | 67 | 71 | 6.0 | 12.0 | 0.00 | 0.00 | 0.00 | 76 | 1012.6 |
| 20260507163531 | 67 | 92 | 4.0 | 11.0 | 0.00 | 0.00 | 0.00 | 76 | 1012.6 |
| 20260507163041 | 66 | 76 | 3.0 | 11.0 | 0.00 | 0.00 | 0.00 | 76 | 1012.6 |
| 20260507162526 | 66 | 82 | 6.0 | 12.0 | 0.00 | 0.00 | 0.00 | 76 | 1012.6 |
| 20260507162026 | 66 | 101 | 5.0 | 13.0 | 0.00 | 0.00 | 0.00 | 77 | 1012.6 |
| 20260507161542 | 66 | 117 | 9.0 | 13.0 | 0.00 | 0.00 | 0.00 | 76 | 1012.6 |
| 20260507161025 | 66 | 98 | 3.0 | 12.0 | 0.00 | 0.00 | 0.00 | 79 | 1012.5 |
| 20260507160526 | 66 | 153 | 7.0 | 12.0 | 0.00 | 0.00 | 0.00 | 79 | 1012.5 |
| 20260507160041 | 66 | 76 | 7.0 | 12.0 | 0.00 | 0.00 | 0.00 | 81 | 1012.5 |
| 20260507155524 | 66 | 89 | 7.0 | 12.0 | 0.00 | 0.00 | 0.00 | 81 | 1012.5 |
| 20260507155024 | 66 | 92 | 6.0 | 13.0 | 0.00 | 0.00 | 0.00 | 82 | 1012.6 |
| 20260507154545 | 66 | 96 | 6.0 | 13.0 | 0.00 | 0.00 | 0.00 | 82 | 1012.6 |
| 20260507154023 | 66 | 125 | 7.0 | 12.0 | 0.00 | 0.00 | 0.00 | 82 | 1012.6 |
| 20260507153524 | 66 | 70 | 7.0 | 15.0 | 0.00 | 0.00 | 0.00 | 82 | 1012.7 |
| 20260507153045 | 66 | 86 | 7.0 | 15.0 | 0.00 | 0.00 | 0.00 | 82 | 1012.6 |
| 20260507152524 | 66 | 78 | 8.0 | 15.0 | 0.00 | 0.00 | 0.00 | 81 | 1012.6 |
| 20260507152024 | 66 | 76 | 7.0 | 14.0 | 0.00 | 0.00 | 0.00 | 81 | 1012.6 |
| 20260507151543 | 66 | 109 | 8.0 | 14.0 | 0.00 | 0.00 | 0.00 | 80 | 1012.5 |
| 20260507151023 | 66 | 81 | 9.0 | 13.0 | 0.00 | 0.00 | 0.00 | 79 | 1012.6 |
| 20260507150524 | 67 | 114 | 7.0 | 13.0 | 0.00 | 0.00 | 0.00 | 80 | 1012.7 |
| 20260507150041 | 67 | 98 | 7.0 | 13.0 | 0.00 | 0.00 | 0.00 | 79 | 1012.7 |
| 20260507145523 | 67 | 93 | 8.0 | 13.0 | 0.00 | 0.00 | 0.00 | 79 | 1012.7 |
| 20260507145026 | 67 | 99 | 7.0 | 13.0 | 0.00 | 0.00 | 0.00 | 79 | 1012.7 |
| 20260507144543 | 67 | 67 | 7.0 | 13.0 | 0.00 | 0.00 | 0.00 | 78 | 1012.7 |
| 20260507144026 | 67 | 51 | 7.0 | 12.0 | 0.00 | 0.00 | 0.00 | 77 | 1012.7 |
| 20260507143526 | 67 | 58 | 7.0 | 13.0 | 0.00 | 0.00 | 0.00 | 75 | 1012.8 |
| 20260507143041 | 67 | 62 | 9.0 | 13.0 | 0.00 | 0.00 | 0.00 | 76 | 1012.7 |
| 20260507142523 | 67 | 36 | 6.0 | 12.0 | 0.00 | 0.00 | 0.00 | 76 | 1012.7 |
| 20260507142024 | 67 | 49 | 8.0 | 12.0 | 0.00 | 0.00 | 0.00 | 76 | 1012.8 |
| 20260507141542 | 67 | 91 | 5.0 | 12.0 | 0.00 | 0.00 | 0.00 | 77 | 1012.6 |
| 20260507141026 | 67 | 60 | 5.0 | 12.0 | 0.00 | 0.00 | 0.00 | 77 | 1012.6 |
| 20260507140525 | 67 | 47 | 6.0 | 13.0 | 0.00 | 0.00 | 0.00 | 76 | 1012.7 |
| 20260507140046 | 68 | 76 | 6.0 | 13.0 | 0.00 | 0.00 | 0.00 | 77 | 1012.7 |
| 20260507135524 | 68 | 47 | 4.0 | 13.0 | 0.00 | 0.00 | 0.00 | 76 | 1012.7 |
| 20260507135025 | 67 | 44 | 6.0 | 13.0 | 0.00 | 0.00 | 0.00 | 76 | 1012.7 |
| 20260507134543 | 67 | 53 | 5.0 | 11.0 | 0.00 | 0.00 | 0.00 | 76 | 1012.8 |
| 20260507134023 | 67 | 84 | 4.0 | 11.0 | 0.00 | 0.00 | 0.00 | 76 | 1012.7 |
| 20260507133525 | 67 | 49 | 5.0 | 11.0 | 0.00 | 0.00 | 0.00 | 75 | 1012.8 |
| 20260507133059 | 67 | 85 | 6.0 | 11.0 | 0.00 | 0.00 | 0.00 | 75 | 1012.8 |
| 20260507132528 | 67 | 94 | 6.0 | 11.0 | 0.00 | 0.00 | 0.00 | 74 | 1012.8 |
| 20260507132023 | 67 | 92 | 6.0 | 12.0 | 0.00 | 0.00 | 0.00 | 73 | 1012.9 |
| 20260507131549 | 67 | 75 | 6.0 | 14.0 | 0.00 | 0.00 | 0.00 | 72 | 1012.9 |
| 20260507131028 | 67 | 60 | 6.0 | 14.0 | 0.00 | 0.00 | 0.00 | 70 | 1012.9 |
| 20260507130523 | 67 | 62 | 6.0 | 14.0 | 0.00 | 0.00 | 0.00 | 69 | 1013.0 |
| 20260507130054 | 67 | 44 | 5.0 | 13.0 | 0.00 | 0.00 | 0.00 | 68 | 1013.0 |
| 20260507125527 | 67 | 58 | 6.0 | 16.0 | 0.00 | 0.00 | 0.00 | 67 | 1013.1 |
| 20260507125026 | 67 | 34 | 8.0 | 16.0 | 0.00 | 0.00 | 0.00 | 67 | 1013.1 |
| 20260507124538 | 67 | 63 | 8.0 | 13.0 | 0.00 | 0.00 | 0.00 | 65 | 1013.1 |
| 20260507124026 | 66 | 46 | 6.0 | 15.0 | 0.00 | 0.00 | 0.00 | 67 | 1013.1 |
| 20260507123526 | 66 | 70 | 7.0 | 15.0 | 0.00 | 0.00 | 0.00 | 67 | 1013.0 |
| 20260507123046 | 66 | 57 | 9.0 | 15.0 | 0.00 | 0.00 | 0.00 | 67 | 1013.0 |
| 20260507122526 | 67 | 78 | 5.0 | 12.0 | 0.00 | 0.00 | 0.00 | 68 | 1013.1 |
| 20260507122028 | 66 | 64 | 5.0 | 12.0 | 0.00 | 0.00 | 0.00 | 69 | 1013.0 |
| 20260507121547 | 66 | 36 | 5.0 | 12.0 | 0.00 | 0.00 | 0.00 | 68 | 1013.0 |
| 20260507121026 | 66 | 355 | 5.0 | 13.0 | 0.00 | 0.00 | 0.00 | 68 | 1013.1 |
| 20260507120525 | 66 | 76 | 7.0 | 13.0 | 0.00 | 0.00 | 0.00 | 68 | 1013.1 |
| 20260507120055 | 67 | 74 | 6.0 | 13.0 | 0.00 | 0.00 | 0.00 | 67 | 1013.1 |
| 20260507115526 | 67 | 26 | 5.0 | 9.0 | 0.00 | 0.00 | 0.00 | 66 | 1013.1 |
| 20260507115025 | 67 | 317 | 3.0 | 12.0 | 0.00 | 0.00 | 0.00 | 67 | 1013.1 |
| 20260507114621 | 67 | 25 | 4.0 | 13.0 | 0.00 | 0.00 | 0.00 | 68 | 1013.2 |
| 20260507114025 | 67 | 38 | 5.0 | 13.0 | 0.00 | 0.00 | 0.00 | 67 | 1013.1 |
| 20260507113527 | 68 | 36 | 5.0 | 14.0 | 0.00 | 0.00 | 0.00 | 68 | 1013.2 |
| 20260507113041 | 67 | 303 | 3.0 | 14.0 | 0.00 | 0.00 | 0.00 | 69 | 1013.1 |
| 20260507112529 | 67 | 27 | 4.0 | 14.0 | 0.00 | 0.00 | 0.00 | 68 | 1013.2 |
| 20260507112026 | 66 | 5 | 6.0 | 14.0 | 0.00 | 0.00 | 0.00 | 69 | 1013.2 |
| 20260507111540 | 66 | 35 | 7.0 | 13.0 | 0.00 | 0.00 | 0.00 | 69 | 1013.2 |
| 20260507111026 | 67 | 9 | 6.0 | 13.0 | 0.00 | 0.00 | 0.00 | 70 | 1013.1 |
| 20260507110526 | 67 | 310 | 4.0 | 13.0 | 0.00 | 0.00 | 0.00 | 72 | 1013.2 |
| 20260507110046 | 67 | 57 | 5.0 | 14.0 | 0.00 | 0.00 | 0.00 | 73 | 1013.1 |
| 20260507105526 | 67 | 39 | 8.0 | 14.0 | 0.00 | 0.00 | 0.00 | 72 | 1013.2 |
| 20260507105030 | 67 | 318 | 7.0 | 13.0 | 0.00 | 0.00 | 0.00 | 74 | 1013.1 |
| 20260507104542 | 67 | 28 | 7.0 | 12.0 | 0.00 | 0.00 | 0.00 | 73 | 1013.3 |
| 20260507104026 | 68 | 338 | 5.0 | 13.0 | 0.00 | 0.00 | 0.00 | 73 | 1013.2 |
| 20260507103525 | 68 | 44 | 7.0 | 13.0 | 0.00 | 0.00 | 0.00 | 72 | 1013.3 |
| 20260507103042 | 69 | 13 | 6.0 | 13.0 | 0.00 | 0.00 | 0.00 | 70 | 1013.2 |
| 20260507102526 | 69 | 41 | 6.0 | 13.0 | 0.00 | 0.00 | 0.00 | 69 | 1013.2 |
| 20260507102026 | 69 | 316 | 7.0 | 13.0 | 0.00 | 0.00 | 0.00 | 67 | 1013.2 |
| 20260507101545 | 72 | 15 | 5.0 | 11.0 | 0.00 | 0.00 | 0.00 | 63 | 1013.1 |
| 20260507101025 | 72 | 320 | 2.0 | 9.0 | 0.00 | 0.00 | 0.00 | 52 | 1013.1 |
| 20260507100526 | 72 | 247 | 4.0 | 9.0 | 0.00 | 0.00 | 0.00 | 52 | 1013.0 |
| 20260507100041 | 72 | 288 | 3.0 | 8.0 | 0.00 | 0.00 | 0.00 | 55 | 1013.1 |
| 20260507095526 | 71 | 287 | 2.0 | 10.0 | 0.00 | 0.00 | 0.00 | 55 | 1013.1 |
| 20260507095027 | 72 | 242 | 4.0 | 11.0 | 0.00 | 0.00 | 0.00 | 53 | 1013.0 |
| 20260507094540 | 72 | 243 | 6.0 | 11.0 | 0.00 | 0.00 | 0.00 | 54 | 1013.1 |
| 20260507094026 | 71 | 171 | 2.0 | 8.0 | 0.00 | 0.00 | 0.00 | 56 | 1013.0 |
| 20260507093526 | 71 | 257 | 2.0 | 9.0 | 0.00 | 0.00 | 0.00 | 55 | 1013.1 |
| 20260507093048 | 71 | 315 | 4.0 | 9.0 | 0.00 | 0.00 | 0.00 | 55 | 1013.1 |
| 20260507092526 | 71 | 302 | 3.0 | 10.0 | 0.00 | 0.00 | 0.00 | 56 | 1013.0 |
| 20260507092025 | 71 | 222 | 4.0 | 10.0 | 0.00 | 0.00 | 0.00 | 55 | 1013.0 |
| 20260507091546 | 71 | 242 | 2.0 | 12.0 | 0.00 | 0.00 | 0.00 | 58 | 1013.1 |
| 20260507091026 | 70 | 250 | 2.0 | 12.0 | 0.00 | 0.00 | 0.00 | 60 | 1013.1 |
| 20260507090528 | 70 | 189 | 6.0 | 12.0 | 0.00 | 0.00 | 0.00 | 58 | 1013.1 |
| 20260507090042 | 70 | 184 | 3.0 | 10.0 | 0.00 | 0.00 | 0.00 | 60 | 1013.1 |
| 20260507085525 | 69 | 186 | 4.0 | 10.0 | 0.00 | 0.00 | 0.00 | 61 | 1013.1 |
| 20260507085026 | 69 | 213 | 4.0 | 11.0 | 0.00 | 0.00 | 0.00 | 61 | 1013.1 |
| 20260507084553 | 69 | 174 | 5.0 | 11.0 | 0.00 | 0.00 | 0.00 | 60 | 1013.1 |
| 20260507084025 | 69 | 196 | 3.0 | 11.0 | 0.00 | 0.00 | 0.00 | 61 | 1013.0 |
| 20260507083526 | 69 | 285 | 3.0 | 13.0 | 0.00 | 0.00 | 0.00 | 63 | 1013.1 |
| 20260507083042 | 68 | 256 | 4.0 | 13.0 | 0.00 | 0.00 | 0.00 | 62 | 1013.2 |
| 20260507082526 | 68 | 205 | 5.0 | 13.0 | 0.00 | 0.00 | 0.00 | 62 | 1013.0 |
| 20260507082026 | 68 | 181 | 4.0 | 12.0 | 0.00 | 0.00 | 0.00 | 63 | 1012.8 |
| 20260507081547 | 68 | 177 | 3.0 | 13.0 | 0.00 | 0.00 | 0.00 | 64 | 1012.8 |
| 20260507081026 | 68 | 223 | 6.0 | 15.0 | 0.00 | 0.00 | 0.00 | 63 | 1012.8 |
| 20260507080527 | 68 | 178 | 5.0 | 15.0 | 0.00 | 0.00 | 0.00 | 62 | 1012.8 |
| 20260507080053 | 68 | 238 | 7.0 | 15.0 | 0.00 | 0.00 | 0.00 | 62 | 1012.8 |
| 20260507075526 | 68 | 255 | 6.0 | 13.0 | 0.00 | 0.00 | 0.00 | 63 | 1012.8 |
| 20260507075026 | 68 | 180 | 6.0 | 14.0 | 0.00 | 0.00 | 0.00 | 63 | 1012.8 |
| 20260507074543 | 68 | 179 | 6.0 | 15.0 | 0.00 | 0.00 | 0.00 | 63 | 1012.8 |
| 20260507074025 | 67 | 198 | 5.0 | 15.0 | 0.00 | 0.00 | 0.00 | 65 | 1013.0 |
| 20260507073526 | 67 | 180 | 4.0 | 10.0 | 0.00 | 0.00 | 0.00 | 66 | 1013.0 |
| 20260507073048 | 67 | 194 | 4.0 | 10.0 | 0.00 | 0.00 | 0.00 | 66 | 1013.0 |
| 20260507072528 | 67 | 198 | 3.0 | 9.0 | 0.00 | 0.00 | 0.00 | 67 | 1013.0 |
| 20260507072025 | 67 | 196 | 3.0 | 10.0 | 0.00 | 0.00 | 0.00 | 68 | 1013.1 |
| 20260507071541 | 67 | 225 | 4.0 | 10.0 | 0.00 | 0.00 | 0.00 | 67 | 1013.1 |
| 20260507071025 | 67 | 181 | 4.0 | 10.0 | 0.00 | 0.00 | 0.00 | 68 | 1013.1 |
| 20260507070527 | 67 | 189 | 4.0 | 11.0 | 0.00 | 0.00 | 0.00 | 69 | 1012.9 |
| 20260507070041 | 66 | 329 | 4.0 | 11.0 | 0.00 | 0.00 | 0.00 | 68 | 1012.9 |
| 20260507065527 | 66 | 188 | 4.0 | 12.0 | 0.00 | 0.00 | 0.00 | 69 | 1012.8 |
| 20260507065027 | 66 | 252 | 4.0 | 12.0 | 0.00 | 0.00 | 0.00 | 69 | 1012.8 |
| 20260507064544 | 65 | 216 | 2.0 | 10.0 | 0.00 | 0.00 | 0.00 | 71 | 1012.8 |
| 20260507064026 | 65 | 264 | 4.0 | 11.0 | 0.00 | 0.00 | 0.00 | 72 | 1012.7 |
| 20260507063526 | 64 | 258 | 4.0 | 11.0 | 0.00 | 0.00 | 0.00 | 74 | 1012.7 |
| 20260507063045 | 64 | 259 | 4.0 | 11.0 | 0.00 | 0.00 | 0.00 | 76 | 1012.6 |
| 20260507062526 | 63 | 240 | 3.0 | 10.0 | 0.00 | 0.00 | 0.00 | 76 | 1012.5 |
| 20260507062026 | 63 | 252 | 2.0 | 9.0 | 0.00 | 0.00 | 0.00 | 76 | 1012.5 |
| 20260507061542 | 63 | 223 | 2.0 | 9.0 | 0.00 | 0.00 | 0.00 | 76 | 1012.6 |
| 20260507061027 | 63 | 254 | 3.0 | 9.0 | 0.00 | 0.00 | 0.00 | 76 | 1012.5 |
| 20260507060525 | 63 | 243 | 3.0 | 8.0 | 0.00 | 0.00 | 0.00 | 77 | 1012.6 |
| 20260507060046 | 63 | 231 | 2.0 | 8.0 | 0.00 | 0.00 | 0.00 | 78 | 1012.5 |
| 20260507055527 | 62 | 240 | 3.0 | 8.0 | 0.00 | 0.01 | 0.00 | 79 | 1012.5 |
| 20260507055029 | 62 | 279 | 3.0 | 8.0 | 0.00 | 0.01 | 0.00 | 80 | 1012.5 |
| 20260507054541 | 62 | 0 | 2.0 | 8.0 | 0.00 | 0.01 | 0.00 | 80 | 1012.5 |
| 20260507054026 | 62 | 210 | 2.0 | 7.0 | 0.00 | 0.01 | 0.00 | 80 | 1012.5 |
| 20260507053526 | 62 | 252 | 1.0 | 6.0 | 0.00 | 0.01 | 0.00 | 80 | 1012.5 |
| 20260507053042 | 62 | 232 | 1.0 | 7.0 | 0.00 | 0.01 | 0.00 | 81 | 1012.4 |
| 20260507052526 | 62 | 192 | 4.0 | 7.0 | 0.00 | 0.01 | 0.00 | 82 | 1012.3 |
| 20260507052026 | 62 | 0 | 2.0 | 8.0 | 0.00 | 0.01 | 0.00 | 83 | 1012.2 |
| 20260507051540 | 62 | 237 | 1.0 | 8.0 | 0.00 | 0.01 | 0.00 | 84 | 1012.3 |
| 20260507051025 | 61 | 209 | 3.0 | 8.0 | 0.00 | 0.01 | 0.00 | 84 | 1012.1 |
| 20260507050527 | 61 | 200 | 3.0 | 6.0 | 0.00 | 0.01 | 0.00 | 85 | 1012.1 |
| 20260507050046 | 61 | 208 | 2.0 | 6.0 | 0.00 | 0.01 | 0.00 | 86 | 1012.1 |
| 20260507045526 | 60 | 209 | 1.0 | 6.0 | 0.00 | 0.05 | 0.00 | 86 | 1012.1 |
| 20260507045026 | 60 | 221 | 1.0 | 3.0 | 0.00 | 0.05 | 0.00 | 87 | 1012.1 |
| 20260507044542 | 60 | 224 | 1.0 | 3.0 | 0.00 | 0.05 | 0.00 | 87 | 1012.1 |
| 20260507044025 | 60 | 225 | 0.0 | 3.0 | 0.00 | 0.05 | 0.00 | 87 | 1012.0 |
| 20260507043526 | 60 | 225 | 0.0 | 3.0 | 0.00 | 0.05 | 0.00 | 87 | 1012.0 |
| 20260507043041 | 60 | 0 | 1.0 | 4.0 | 0.00 | 0.05 | 0.00 | 87 | 1012.0 |
| 20260507042526 | 60 | 225 | 1.0 | 4.0 | 0.00 | 0.05 | 0.00 | 87 | 1012.0 |
| 20260507042025 | 60 | 225 | 2.0 | 4.0 | 0.00 | 0.05 | 0.00 | 88 | 1011.9 |
| 20260507041540 | 60 | 231 | 1.0 | 3.0 | 0.00 | 0.05 | 0.00 | 88 | 1011.9 |
| 20260507041026 | 60 | 234 | 0.0 | 3.0 | 0.00 | 0.05 | 0.00 | 88 | 1011.9 |
| 20260507040526 | 61 | 0 | 0.0 | 3.0 | 0.00 | 0.05 | 0.00 | 88 | 1011.8 |
| 20260507040043 | 61 | 235 | 2.0 | 3.0 | 0.00 | 0.05 | 0.00 | 88 | 1011.9 |
| 20260507035526 | 61 | 235 | 0.0 | 2.0 | 0.00 | 0.05 | 0.00 | 87 | 1011.8 |
| 20260507035026 | 61 | 235 | 1.0 | 2.0 | 0.00 | 0.05 | 0.00 | 87 | 1011.8 |
| 20260507034551 | 61 | 235 | 0.0 | 3.0 | 0.00 | 0.05 | 0.00 | 87 | 1011.8 |
| 20260507034026 | 61 | 0 | 1.0 | 3.0 | 0.00 | 0.05 | 0.00 | 87 | 1011.8 |
| 20260507033526 | 61 | 0 | 1.0 | 3.0 | 0.00 | 0.05 | 0.00 | 87 | 1011.8 |
| 20260507033046 | 61 | 0 | 0.0 | 0.0 | 0.00 | 0.05 | 0.00 | 87 | 1011.7 |
| 20260507032524 | 61 | 0 | 0.0 | 0.0 | 0.00 | 0.05 | 0.00 | 86 | 1011.7 |
| 20260507032025 | 61 | 0 | 0.0 | 0.0 | 0.00 | 0.05 | 0.00 | 86 | 1011.6 |
| 20260507031541 | 61 | 0 | 0.0 | 1.0 | 0.00 | 0.05 | 0.00 | 86 | 1011.6 |
| 20260507031026 | 61 | 0 | 0.0 | 1.0 | 0.00 | 0.05 | 0.00 | 86 | 1011.7 |
| 20260507030526 | 61 | 0 | 0.0 | 2.0 | 0.00 | 0.05 | 0.00 | 86 | 1011.6 |
| 20260507030043 | 61 | 0 | 0.0 | 2.0 | 0.00 | 0.05 | 0.00 | 85 | 1011.5 |
| 20260507025525 | 61 | 234 | 0.0 | 2.0 | 0.00 | 0.05 | 0.00 | 85 | 1011.5 |
| 20260507025028 | 61 | 0 | 0.0 | 1.0 | 0.00 | 0.05 | 0.00 | 85 | 1011.4 |
| 20260507024540 | 61 | 0 | 0.0 | 3.0 | 0.00 | 0.05 | 0.00 | 85 | 1011.4 |
| 20260507024025 | 61 | 0 | 0.0 | 4.0 | 0.00 | 0.05 | 0.00 | 85 | 1011.4 |
| 20260507023525 | 61 | 234 | 1.0 | 4.0 | 0.00 | 0.05 | 0.00 | 85 | 1011.4 |
| 20260507023046 | 61 | 232 | 0.0 | 3.0 | 0.00 | 0.05 | 0.00 | 84 | 1011.5 |
| 20260507022525 | 61 | 0 | 1.0 | 3.0 | 0.00 | 0.05 | 0.00 | 84 | 1011.4 |
| 20260507022025 | 62 | 232 | 1.0 | 4.0 | 0.00 | 0.05 | 0.00 | 84 | 1011.4 |
| 20260507021547 | 62 | 0 | 1.0 | 4.0 | 0.00 | 0.04 | 0.00 | 83 | 1011.4 |
| 20260507021026 | 62 | 226 | 2.0 | 4.0 | 0.00 | 0.04 | 0.00 | 83 | 1011.3 |
| 20260507020525 | 62 | 229 | 1.0 | 3.0 | 0.00 | 0.04 | 0.00 | 82 | 1011.4 |
| 20260507020104 | 62 | 228 | 0.0 | 3.0 | 0.00 | 0.04 | 0.00 | 82 | 1011.4 |
| 20260507015526 | 62 | 229 | 1.0 | 3.0 | 0.00 | 0.04 | 0.00 | 82 | 1011.6 |
| 20260507015026 | 62 | 232 | 0.0 | 5.0 | 0.00 | 0.04 | 0.00 | 81 | 1011.7 |
| 20260507014546 | 62 | 232 | 1.0 | 5.0 | 0.00 | 0.04 | 0.00 | 81 | 1011.7 |
| 20260507014026 | 63 | 0 | 2.0 | 6.0 | 0.00 | 0.04 | 0.00 | 80 | 1011.6 |
| 20260507013526 | 63 | 254 | 1.0 | 6.0 | 0.00 | 0.04 | 0.00 | 80 | 1011.7 |
| 20260507013052 | 63 | 257 | 2.0 | 6.0 | 0.00 | 0.04 | 0.00 | 79 | 1011.6 |
| 20260507012526 | 63 | 276 | 2.0 | 10.0 | 0.00 | 0.04 | 0.00 | 79 | 1011.7 |
| 20260507012026 | 63 | 276 | 3.0 | 10.0 | 0.00 | 0.04 | 0.00 | 79 | 1011.5 |
| 20260507011541 | 63 | 247 | 3.0 | 9.0 | 0.00 | 0.04 | 0.00 | 79 | 1011.5 |
| 20260507011025 | 63 | 245 | 4.0 | 10.0 | 0.00 | 0.04 | 0.00 | 79 | 1011.4 |
| 20260507010526 | 63 | 281 | 4.0 | 10.0 | 0.00 | 0.04 | 0.00 | 79 | 1011.5 |
| 20260507010040 | 63 | 284 | 2.0 | 8.0 | 0.00 | 0.04 | 0.00 | 79 | 1011.4 |
| 20260507005525 | 63 | 263 | 2.0 | 7.0 | 0.00 | 0.04 | 0.00 | 79 | 1011.5 |
| 20260507005025 | 63 | 291 | 1.0 | 7.0 | 0.00 | 0.04 | 0.00 | 78 | 1011.4 |
| 20260507004548 | 63 | 286 | 1.0 | 3.0 | 0.00 | 0.04 | 0.00 | 78 | 1011.4 |
| 20260507004025 | 63 | 286 | 1.0 | 3.0 | 0.00 | 0.04 | 0.00 | 77 | 1011.4 |
| 20260507003525 | 63 | 286 | 0.0 | 3.0 | 0.00 | 0.04 | 0.00 | 77 | 1011.3 |
| 20260507003048 | 63 | 0 | 0.0 | 2.0 | 0.00 | 0.04 | 0.00 | 77 | 1011.3 |
| 20260507002526 | 63 | 0 | 0.0 | 2.0 | 0.00 | 0.04 | 0.00 | 77 | 1011.3 |
| 20260507002026 | 63 | 0 | 1.0 | 2.0 | 0.00 | 0.04 | 0.00 | 77 | 1011.5 |
| 20260507001546 | 63 | 0 | 1.0 | 3.0 | 0.00 | 0.04 | 0.00 | 77 | 1011.5 |
| 20260507001026 | 63 | 0 | 1.0 | 3.0 | 0.00 | 0.04 | 0.00 | 77 | 1011.6 |
| 20260507000526 | 63 | 0 | 0.0 | 2.0 | 0.00 | 0.04 | 0.00 | 76 | 1011.6 |
| 20260507000042 | 63 | 286 | 0.0 | 2.0 | 0.00 | 0.04 | 0.00 | 76 | 1011.7 |
| 20260506235528 | 63 | 0 | 1.0 | 3.0 | 0.00 | 0.04 | 0.00 | 76 | 1011.7 |
| 20260506235025 | 64 | 0 | 1.0 | 3.0 | 0.00 | 0.04 | 0.00 | 76 | 1011.5 |
| 20260506234544 | 64 | 281 | 0.0 | 2.0 | 0.00 | 0.04 | 0.00 | 75 | 1011.6 |
| 20260506234025 | 64 | 281 | 1.0 | 3.0 | 0.00 | 0.04 | 0.00 | 75 | 1011.5 |
| 20260506233527 | 64 | 281 | 1.0 | 3.0 | 0.00 | 0.04 | 0.00 | 75 | 1011.6 |
| 20260506233102 | 64 | 281 | 1.0 | 3.0 | 0.00 | 0.04 | 0.00 | 74 | 1011.5 |
| 20260506232526 | 65 | 0 | 0.0 | 3.0 | 0.00 | 0.04 | 0.00 | 74 | 1011.5 |
| 20260506232026 | 65 | 0 | 0.0 | 4.0 | 0.00 | 0.04 | 0.00 | 74 | 1011.5 |
| 20260506231538 | 65 | 0 | 0.0 | 4.0 | 0.00 | 0.04 | 0.00 | 74 | 1011.5 |
| 20260506231026 | 65 | 283 | 1.0 | 4.0 | 0.00 | 0.04 | 0.00 | 74 | 1011.6 |
| 20260506230526 | 65 | 282 | 1.0 | 7.0 | 0.00 | 0.04 | 0.00 | 74 | 1011.6 |
| 20260506230049 | 65 | 0 | 0.0 | 7.0 | 0.00 | 0.04 | 0.00 | 74 | 1011.6 |
| 20260506225526 | 65 | 264 | 2.0 | 8.0 | 0.00 | 0.14 | 0.00 | 74 | 1011.6 |
| 20260506225027 | 65 | 0 | 2.0 | 8.0 | 0.00 | 0.14 | 0.00 | 74 | 1011.4 |
| 20260506224543 | 65 | 204 | 0.0 | 5.0 | 0.00 | 0.14 | 0.00 | 74 | 1011.5 |
| 20260506224029 | 65 | 0 | 1.0 | 5.0 | 0.00 | 0.14 | 0.00 | 74 | 1011.6 |
| 20260506223525 | 65 | 204 | 0.0 | 5.0 | 0.00 | 0.14 | 0.00 | 73 | 1011.5 |
| 20260506223045 | 65 | 204 | 1.0 | 5.0 | 0.00 | 0.14 | 0.00 | 74 | 1011.5 |
| 20260506222527 | 65 | 298 | 2.0 | 7.0 | 0.00 | 0.14 | 0.00 | 73 | 1011.5 |
| 20260506222028 | 65 | 296 | 1.0 | 8.0 | 0.00 | 0.14 | 0.00 | 73 | 1011.5 |
| 20260506221543 | 65 | 251 | 2.0 | 8.0 | 0.00 | 0.14 | 0.00 | 72 | 1011.5 |
| 20260506221026 | 65 | 246 | 2.0 | 11.0 | 0.00 | 0.14 | 0.00 | 72 | 1011.5 |
| 20260506220526 | 65 | 276 | 4.0 | 11.0 | 0.00 | 0.14 | 0.00 | 72 | 1011.4 |
| 20260506220042 | 66 | 307 | 5.0 | 10.0 | 0.00 | 0.14 | 0.00 | 71 | 1011.3 |
| 20260506215526 | 66 | 296 | 4.0 | 8.0 | 0.00 | 0.18 | 0.14 | 71 | 1011.3 |
| 20260506215029 | 66 | 275 | 1.0 | 6.0 | 0.00 | 0.18 | 0.14 | 71 | 1011.4 |
| 20260506214542 | 66 | 304 | 2.0 | 8.0 | 0.00 | 0.18 | 0.14 | 71 | 1011.5 |
| 20260506214025 | 66 | 254 | 2.0 | 8.0 | 0.00 | 0.18 | 0.14 | 70 | 1011.5 |
| 20260506213528 | 66 | 328 | 2.0 | 8.0 | 0.00 | 0.18 | 0.14 | 70 | 1011.5 |
| 20260506213058 | 66 | 234 | 2.0 | 8.0 | 0.00 | 0.18 | 0.14 | 70 | 1011.5 |
| 20260506212526 | 66 | 244 | 2.0 | 8.0 | 0.00 | 0.18 | 0.14 | 70 | 1011.5 |